Location: Errabaliem
(16.8108°N, 80.4255°E)
Time: 13:55:38
(UTC+00:00)

Cosmos 2058 - Pass Details

Date: 05 August 2024
Orbit: 543 x 561 km, 82.5° (Epoch: 11 September)

Event Time Altitude Azimuth Distance (km) Brightness Sun altitude
Exits shadow 14:44:37 51° 44° (NE) 710 3.2 -22.1°
Drops below altitude 10° 14:47:52 10° 13° (NNE) 1,841 5.6 -22.8°
Sets 14:50:03 0° 10° (N) 2,735 6.6 -23.3°
